Date_and_time,latitude,longitude,wind_speed,RelWindDirFrom,WindDirFrom,air_pressure,air_temperature,relative_humidity,Temp,platform_speed_wrt_ground,air_pressure_at_mean_sea_level,platform_orientation
2018-10-08 23:50,53.8202416666667,-98.5347416666667,5.4,8.2,348,998.72,1.3,52,6.56,2.8,1026.83,308.9
2018-10-09 00:00,53.814545,-98.5480566666667,4.9,7.7,333,998.79,1.1,52,6.63,3.5,1026.91,338.0
2018-10-09 00:10,53.7928,-98.5876916666667,7.4,10.2,277,998.79,1.0,52,6.69,11.5,1026.92,338.0
2018-10-09 00:20,53.770805,-98.625545,7.6,10.4,286,998.90,1.2,51,6.61,11.3,1027.01,338.0
2018-10-09 00:30,53.74908,-98.66381,8.1,11.0,291,998.90,1.3,52,6.55,11.3,1027.00,338.0
2018-10-09 00:40,53.727425,-98.7022233333333,8.7,12.0,292,998.98,1.4,53,6.86,11.3,1027.06,338.0
2018-10-09 00:50,53.70555,-98.7401516666667,9.5,14.3,284,999.10,1.5,52,7.09,11.3,1027.17,338.0
2018-10-09 01:00,53.684065,-98.77856,10.1,15.2,296,999.05,1.6,49,7.28,11.3,1027.11,276.8
2018-10-09 01:10,53.6615166666667,-98.8153766666667,9.2,12.2,291,998.96,1.7,49,7.37,11.3,1027.00,276.8
2018-10-09 01:20,53.63936,-98.8528883333333,10.5,14.2,300,998.97,1.8,47,7.34,11.3,1026.97,276.8
2018-10-09 01:30,53.62787,-98.8731466666667,11.0,16.2,319,999.04,1.7,50,6.77,6.0,1027.05,276.8
2018-10-09 01:40,53.62786,-98.8731766666667,11.8,14.4,347,998.97,1.3,50,6.67,0.0,1027.01,276.8
2018-10-09 01:50,53.62787,-98.8730216666667,12.0,14.4,335,998.98,1.2,55,6.64,0.0,1027.03,276.8
2018-10-09 02:00,53.6278583333333,-98.8730433333333,12.1,14.5,339,998.95,1.1,56,6.62,0.0,1027.01,227.0
2018-10-09 02:10,53.62783,-98.8730616666667,12.7,15.2,339,998.95,1.0,57,6.60,0.0,1027.01,227.0
2018-10-09 02:20,53.6278633333333,-98.8730166666667,14.2,16.7,345,998.85,1.0,58,6.56,0.0,1026.91,227.0
2018-10-09 02:30,53.6278483333333,-98.8730216666667,14.5,17.4,339,998.82,0.7,59,6.54,0.0,1026.88,227.0
2018-10-09 02:40,53.6278683333333,-98.872955,13.8,16.7,340,998.96,0.6,61,6.53,0.0,1027.03,227.0
2018-10-09 02:50,53.6278533333333,-98.8728966666667,14.5,17.1,344,999.02,0.6,62,6.50,0.0,1027.08,227.0
2018-10-09 03:00,53.6278616666667,-98.8729183333333,14.2,17.3,342,999.10,0.6,63,6.48,0.0,1027.17,226.0
2018-10-09 03:10,53.6278683333333,-98.8728783333333,12.5,15.3,337,999.35,0.5,63,6.46,0.0,1027.41,226.0
2018-10-09 03:20,53.6278833333333,-98.8728616666667,11.4,14.0,332,999.53,0.4,63,6.41,0.0,1027.62,226.0
2018-10-09 03:30,53.627885,-98.872825,12.1,14.7,333,999.51,0.3,63,6.38,0.0,1027.62,226.0
2018-10-09 03:40,53.62789,-98.8728916666667,11.9,14.3,331,999.48,0.2,64,6.38,0.0,1027.59,226.0
2018-10-09 03:50,53.62789,-98.872905,11.1,13.2,329,999.49,0.0,66,6.35,0.0,1027.63,226.0
2018-10-09 04:00,53.6278616666667,-98.8729466666667,10.9,12.9,332,999.38,-0.1,67,6.32,0.0,1027.52,224.9
2018-10-09 04:10,53.6278716666667,-98.8728666666667,10.8,13.2,334,999.39,-0.0,68,6.30,0.0,1027.53,224.9
2018-10-09 04:20,53.6278566666667,-98.8729166666667,12.1,15.1,335,999.18,0.1,67,6.29,0.0,1027.32,224.9
2018-10-09 04:30,53.627855,-98.8729566666667,12.1,14.3,336,999.20,0.1,68,6.26,0.0,1027.35,224.9
2018-10-09 04:40,53.62786,-98.872895,12.7,16.1,334,999.18,0.2,68,6.23,0.0,1027.33,224.9
2018-10-09 04:50,53.6278416666667,-98.8728516666667,12.8,16.1,332,999.21,0.2,68,6.21,0.0,1027.35,224.9
2018-10-09 05:00,53.627875,-98.8728516666667,12.2,17.4,334,999.29,0.2,68,6.22,0.0,1027.44,78.9
2018-10-09 05:10,53.6278966666667,-98.8727566666667,11.6,14.2,330,999.44,0.2,68,6.21,0.0,1027.59,78.9
2018-10-09 05:20,53.627885,-98.8727533333333,12.1,15.1,331,999.53,0.3,68,6.19,0.0,1027.69,78.9
2018-10-09 05:30,53.6278916666667,-98.8727566666667,12.6,15.3,329,999.61,0.2,66,6.18,0.0,1027.78,78.9
2018-10-09 05:40,53.627905,-98.8726833333333,12.8,16.6,330,999.59,0.3,66,6.18,0.0,1027.77,78.9
2018-10-09 05:50,53.6279333333333,-98.8726266666667,12.5,15.1,324,999.68,0.1,67,6.18,0.0,1027.87,78.9
2018-10-09 06:00,53.6279333333333,-98.8726983333333,11.7,14.5,324,999.75,-0.1,67,6.16,0.0,1027.96,62.2
2018-10-09 06:10,53.627905,-98.8727566666667,11.0,13.2,325,999.84,-0.1,68,6.16,0.0,1028.04,62.2
2018-10-09 06:20,53.627885,-98.8727833333333,11.4,14.9,325,999.87,-0.2,68,6.15,0.0,1028.07,62.2
2018-10-09 06:30,53.62792,-98.8726916666667,11.7,15.2,326,999.88,-0.2,69,6.15,0.0,1028.09,62.2
2018-10-09 06:40,53.6279533333333,-98.87261,11.7,14.8,324,999.96,-0.2,69,6.14,0.0,1028.17,62.2
2018-10-09 06:50,53.627925,-98.8727133333333,11.4,13.6,327,1000.12,-0.3,69,6.14,0.0,1028.33,62.2
2018-10-09 07:00,53.6279016666667,-98.8727316666667,10.7,14.1,326,1000.23,-0.3,69,6.14,0.0,1028.45,72.2
2018-10-09 07:10,53.6279533333333,-98.87262,9.1,12.0,322,1000.45,-0.4,70,6.14,0.0,1028.68,72.2
2018-10-09 07:20,53.6279083333333,-98.8727183333333,8.9,10.8,321,1000.49,-0.5,70,6.14,0.0,1028.72,72.2
2018-10-09 07:30,53.627935,-98.8726233333333,9.5,10.9,321,1000.42,-0.6,70,6.12,0.0,1028.65,72.2
2018-10-09 07:40,53.6278916666667,-98.8727883333333,9.9,12.0,327,1000.35,-0.6,70,6.12,0.0,1028.59,72.2
2018-10-09 07:50,53.6279266666667,-98.8727033333333,10.1,12.0,328,1000.37,-0.5,69,6.12,0.0,1028.62,72.2
2018-10-09 08:00,53.62795,-98.8726583333333,10.1,12.1,326,1000.35,-0.4,69,6.12,0.0,1028.59,56.1
2018-10-09 08:10,53.6279066666667,-98.8727116666667,9.4,11.7,323,1000.47,-0.4,71,6.11,0.0,1028.72,56.1
2018-10-09 08:20,53.6279616666667,-98.8726483333333,8.9,10.5,319,1000.51,-0.4,70,6.11,0.0,1028.76,56.1
2018-10-09 08:30,53.6279033333333,-98.872735,9.6,11.3,322,1000.44,-0.3,68,6.10,0.0,1028.69,56.1
2018-10-09 08:40,53.627965,-98.8725816666667,9.3,11.1,317,1000.36,-0.4,68,6.10,0.0,1028.61,56.1
2018-10-09 08:50,53.6279216666667,-98.8726616666667,9.8,11.3,318,1000.29,-0.4,69,6.09,0.0,1028.54,56.1
2018-10-09 09:00,53.6279966666667,-98.8725483333333,9.7,12.5,315,1000.20,-0.5,70,6.09,0.0,1028.46,54.9
2018-10-09 09:10,53.62795,-98.8726083333333,10.0,12.0,317,1000.20,-0.5,70,6.08,0.0,1028.46,54.9
2018-10-09 09:20,53.627995,-98.8725066666667,8.5,12.1,311,1000.47,-0.4,71,6.08,0.0,1028.74,54.9
2018-10-09 09:30,53.6279233333333,-98.87263,9.4,12.3,318,1000.42,-0.3,69,6.08,0.0,1028.69,54.9
2018-10-09 09:40,53.6279633333333,-98.8725966666667,10.9,13.1,320,1000.26,-0.2,67,6.08,0.0,1028.51,54.9
2018-10-09 09:50,53.6279916666667,-98.8725483333333,11.2,13.0,319,1000.26,-0.3,65,6.07,0.0,1028.51,54.9
2018-10-09 10:00,53.62794,-98.8726433333333,11.0,13.1,319,1000.34,-0.2,65,6.06,0.0,1028.59,57.7
2018-10-09 10:10,53.6279933333333,-98.8725733333333,10.5,12.6,315,1000.44,-0.2,69,6.06,0.0,1028.69,57.7
2018-10-09 10:20,53.628015,-98.87256,10.2,11.9,311,1000.53,-0.3,74,6.05,0.0,1028.78,57.7
2018-10-09 10:30,53.6279783333333,-98.872555,10.2,12.1,311,1000.58,-0.4,74,6.05,0.0,1028.84,57.7
2018-10-09 10:40,53.628025,-98.87248,10.3,12.5,312,1000.56,-0.4,75,6.04,0.0,1028.83,57.7
2018-10-09 10:50,53.6279666666667,-98.8725683333333,10.1,12.1,314,1000.49,-0.5,76,6.04,0.0,1028.76,57.7
2018-10-09 11:00,53.6280116666667,-98.872505,9.8,11.7,313,1000.50,-0.5,76,6.03,0.0,1028.77,57.9
2018-10-09 11:10,53.6280016666667,-98.8725116666667,9.9,12.4,311,1000.49,-0.6,76,6.03,0.0,1028.76,57.9
2018-10-09 11:20,53.6279716666667,-98.87256,9.6,11.9,316,1000.49,-0.6,74,6.03,0.0,1028.76,57.9
2018-10-09 11:30,53.6279833333333,-98.8725783333333,9.5,11.5,316,1000.50,-0.6,74,6.03,0.0,1028.76,57.9
2018-10-09 11:40,53.6279983333333,-98.8725333333333,9.2,11.7,319,1000.56,-0.7,74,6.03,0.0,1028.84,57.9
2018-10-09 11:50,53.6279533333333,-98.87263,9.0,11.2,317,1000.65,-0.7,76,6.03,0.0,1028.92,57.9
2018-10-09 12:00,53.6280116666667,-98.8724916666667,9.5,12.0,315,1000.63,-0.6,77,6.02,0.0,1028.90,72.3
2018-10-09 12:10,53.628655,-98.8730416666667,10.3,12.2,317,1000.62,-0.7,77,6.02,0.3,1028.89,72.3
2018-10-09 12:20,53.6102216666667,-98.89735,14.6,18.4,280,1000.79,-0.5,77,6.02,8.4,1029.06,72.3
2018-10-09 12:30,53.5885966666667,-98.9266433333333,15.0,20.8,272,1000.85,-0.3,77,6.35,10.0,1029.12,72.3
2018-10-09 12:40,53.5580933333333,-98.9366883333333,13.1,15.4,259,1001.14,-0.3,79,6.91,11.2,1029.42,72.3
2018-10-09 12:50,53.527555,-98.9465083333333,12.9,15.0,260,1001.25,-0.2,81,7.26,11.2,1029.53,72.3
2018-10-09 13:00,53.496965,-98.95593,13.3,15.5,262,1001.28,-0.5,80,7.34,11.2,1029.58,200.7
2018-10-09 13:10,53.4662433333333,-98.9653733333333,13.7,16.5,271,1001.29,-0.2,77,7.47,11.2,1029.57,200.7
2018-10-09 13:20,53.4353083333333,-98.97396,13.2,15.8,268,1001.38,-0.1,77,7.51,11.3,1029.66,200.7
2018-10-09 13:30,53.4044616666667,-98.983065,12.3,14.7,265,1001.52,-0.0,78,7.55,11.3,1029.81,200.7
2018-10-09 13:40,53.3737066666667,-98.9921983333333,11.9,14.8,263,1001.65,0.1,80,7.53,11.2,1029.93,200.7
2018-10-09 13:50,53.3428566666667,-99.0010583333333,11.7,14.6,266,1001.69,0.5,76,7.29,11.3,1029.95,200.7
2018-10-09 14:00,53.3120116666667,-99.0100733333333,12.0,14.4,260,1001.75,0.6,75,7.35,11.3,1030.01,194.6
2018-10-09 14:10,53.281175,-99.0190833333333,10.9,14.1,265,1001.89,0.7,73,7.55,11.3,1030.14,194.6
2018-10-09 14:20,53.26139,-99.0585583333333,17.1,19.9,279,1001.70,0.5,74,7.48,11.1,1029.95,194.6
2018-10-09 14:30,53.2467833333333,-99.102475,16.8,19.8,283,1001.72,0.4,76,7.17,10.8,1029.97,194.6
2018-10-09 14:40,53.2356216666667,-99.1494116666667,17.1,21.3,284,1001.57,0.3,75,6.86,10.9,1029.82,194.6
2018-10-09 14:50,53.2230483333333,-99.1957933333333,15.0,19.2,279,1001.67,0.2,76,6.56,11.0,1029.94,194.6
2018-10-09 15:00,53.2082116666667,-99.2388016666667,13.1,18.7,270,1001.72,0.4,75,6.20,10.7,1029.96,207.6
2018-10-09 15:10,53.1880833333333,-99.2547133333333,9.4,16.1,257,1002.01,0.9,72,6.08,8.0,1030.23,207.6
2018-10-09 15:20,53.1827666666667,-99.2544116666667,5.8,9.0,298,1002.17,2.3,66,6.04,1.9,1030.32,207.6
2018-10-09 15:30,53.1827366666667,-99.2544083333333,6.1,9.6,308,1002.11,3.6,62,5.92,0.0,1030.18,207.6
2018-10-09 15:40,53.1827433333333,-99.2544083333333,7.7,11.6,318,1002.09,4.6,56,5.88,0.0,1030.08,207.6
2018-10-09 15:50,53.1827466666667,-99.2544066666667,5.9,10.6,300,1002.10,3.5,58,5.88,0.0,1030.15,207.6
2018-10-09 16:00,53.1827483333333,-99.2544083333333,6.3,8.9,297,1002.17,3.2,56,5.89,0.0,1030.24,209.7
2018-10-09 16:10,53.18275,-99.25441,6.4,9.3,296,1002.16,3.4,54,5.89,0.0,1030.23,209.7
2018-10-09 16:20,53.18275,-99.25441,6.6,10.3,312,1002.17,4.1,49,5.89,0.0,1030.20,209.7
2018-10-09 16:30,53.1827416666667,-99.2544,8.0,13.0,310,1002.25,4.3,47,5.90,0.0,1030.28,209.7
2018-10-09 16:40,53.1827416666667,-99.2544166666667,6.7,10.6,320,1002.27,4.8,46,5.88,0.0,1030.27,209.7
2018-10-09 16:50,53.1827383333333,-99.25442,7.5,12.6,319,1002.26,4.8,45,5.90,0.0,1030.25,209.7
2018-10-09 17:00,53.182725,-99.2544283333333,8.9,16.1,309,1002.26,4.5,44,5.92,0.0,1030.25,228.6
2018-10-09 17:10,53.18276,-99.25443,9.0,13.0,318,1002.32,4.6,44,5.95,0.0,1030.24,228.6
2018-10-09 17:20,53.1827483333333,-99.254415,9.2,14.1,334,1002.30,4.8,46,5.97,0.0,1030.14,228.6
2018-10-09 17:30,53.1827483333333,-99.2544116666667,7.7,14.6,324,1002.31,4.8,46,6.03,0.0,1030.09,228.6
2018-10-09 17:40,53.18275,-99.2544116666667,7.3,11.3,332,1002.32,4.5,47,6.07,0.0,1030.18,228.6
2018-10-09 17:50,53.182755,-99.25441,7.1,13.0,339,1002.33,4.8,45,6.09,0.0,1030.19,228.6
2018-10-09 18:00,53.1827516666667,-99.25441,7.0,13.2,339,1002.28,4.6,45,6.08,0.0,1030.14,200.2
2018-10-09 18:10,53.1827516666667,-99.254405,6.6,12.2,324,1002.30,5.2,45,6.09,0.0,1030.09,200.2
2018-10-09 18:20,53.18275,-99.2544183333333,6.0,11.5,312,1002.32,5.3,44,6.11,0.0,1030.09,200.2
2018-10-09 18:30,53.1827466666667,-99.2543983333333,5.6,9.5,335,1002.24,5.3,45,6.14,0.0,1029.99,200.2
2018-10-09 18:40,53.1827383333333,-99.2544033333333,6.3,10.9,348,1002.12,4.8,46,6.15,0.0,1029.89,200.2
2018-10-09 18:50,53.1827333333333,-99.25441,5.9,10.9,348,1002.09,4.9,45,6.18,0.0,1029.87,200.2
2018-10-09 19:00,53.1827333333333,-99.2544083333333,5.4,9.8,343,1002.05,4.7,45,6.19,0.0,1029.83,360.0
2018-10-09 19:10,53.1827333333333,-99.2544116666667,4.1,8.6,335,1002.04,4.9,45,6.22,0.0,1029.80,360.0
2018-10-09 19:20,53.18272,-99.2544016666667,5.2,8.4,359,1001.96,4.7,45,6.24,0.0,1029.73,360.0
2018-10-09 19:30,53.182725,-99.254405,5.4,8.5,2,1001.96,4.0,46,6.26,0.0,1029.78,360.0
2018-10-09 19:40,53.18273,-99.2544116666667,4.0,7.7,28,1001.95,4.2,48,6.26,0.0,1029.75,360.0
2018-10-09 19:50,53.1827566666667,-99.2544166666667,4.0,7.6,29,1001.93,4.1,49,6.27,0.0,1029.75,360.0
2018-10-09 20:00,53.1827366666667,-99.2543816666667,3.0,6.2,37,1001.97,3.9,50,6.27,0.0,1029.76,68.0
2018-10-09 20:10,53.1827416666667,-99.2544016666667,3.1,5.9,53,1001.96,3.8,50,6.28,0.0,1029.75,68.0
2018-10-09 20:20,53.1827333333333,-99.2544116666667,4.1,7.2,56,1002.04,4.3,47,6.28,0.0,1029.81,68.0
2018-10-09 20:30,53.18273,-99.254405,2.9,7.4,63,1002.06,4.3,47,6.29,0.0,1029.86,68.0
2018-10-09 20:40,53.18274,-99.2543983333333,3.3,7.2,63,1002.07,4.4,48,6.30,0.0,1029.85,68.0
2018-10-09 20:50,53.18274,-99.2544066666667,3.8,7.0,82,1002.19,4.1,49,6.32,0.0,1030.01,68.0
2018-10-09 21:00,53.1827366666667,-99.254405,3.4,5.5,86,1002.36,3.8,50,6.32,0.0,1030.18,360.0
2018-10-09 21:10,53.182735,-99.2544083333333,5.4,10.1,79,1002.53,3.6,55,6.33,0.0,1030.38,360.0
2018-10-09 21:20,53.182735,-99.2544066666667,5.1,10.0,76,1002.52,3.3,59,6.33,0.0,1030.42,360.0
2018-10-09 21:30,53.182735,-99.254405,4.4,8.1,69,1002.45,3.1,59,6.32,0.0,1030.34,360.0
2018-10-09 21:40,53.182735,-99.2544066666667,4.7,7.3,83,1002.42,3.0,60,6.32,0.0,1030.33,360.0
2018-10-09 21:50,53.182735,-99.2544066666667,3.9,8.7,59,1002.37,2.9,61,6.32,0.0,1030.29,360.0
2018-10-09 22:00,53.182735,-99.2544066666667,3.3,6.1,61,1002.44,2.8,61,6.31,0.0,1030.37,360.0
2018-10-09 22:10,53.182735,-99.2544066666667,3.8,8.8,60,1002.49,2.7,61,6.30,0.0,1030.40,360.0
2018-10-09 22:20,53.182745,-99.254405,3.4,6.9,59,1002.57,2.7,61,6.30,0.0,1030.49,360.0
2018-10-09 22:30,53.18274,-99.254405,3.6,7.4,54,1002.60,2.7,62,6.30,0.0,1030.51,360.0
2018-10-09 22:40,53.1827366666667,-99.2544083333333,2.9,5.7,68,1002.62,2.6,63,6.30,0.0,1030.55,360.0
2018-10-09 22:50,53.1827366666667,-99.254405,3.5,6.3,57,1002.60,2.5,63,6.30,0.0,1030.55,360.0
2018-10-09 23:00,53.1827366666667,-99.254405,3.5,7.7,48,1002.69,2.5,64,6.30,0.0,1030.66,270.0
2018-10-09 23:10,53.1827466666667,-99.25439,4.5,8.3,41,1002.69,2.4,63,6.31,0.0,1030.68,270.0
2018-10-09 23:20,53.18275,-99.254395,4.5,8.5,35,1002.80,2.4,62,6.29,0.0,1030.80,270.0
2018-10-09 23:30,53.1827483333333,-99.2543966666667,4.7,8.1,35,1002.95,2.4,62,6.30,0.0,1030.96,270.0
